Weather History for Valparaiso, FL

Change the Weather History Date:

Tuesday, August 13, 2013

  Actual Average Record
Temperature  
Mean Temperature 82 °F -  
Max Temperature 89 °F 91 °F 98 °F (1954)
Min Temperature 75 °F 69 °F 64 °F (1989)
Cooling Degree Days 16    
Growing Degree Days 32 (Base 50)    
Moisture  
Dew Point 75 °F    
Average Humidity 86    
Maximum Humidity 95    
Minimum Humidity 65    
Precipitation  
Precipitation 0.11 in - - ()
Sea Level Pressure  
Sea Level Pressure 30.02 in    
Wind  
Wind Speed 3 mph (WNW)    
Max Wind Speed 15 mph    
Max Gust Speed 26 mph    
Visibility 9 miles    
Events Rain , Thunderstorm    
Averages and records for this station are not official NWS values.
T = Trace of Precipitation, MM = Missing Value Source: NWS Daily Summary

Daily Weather History Graph

Daily Weather History Graph

Search for Another Location

Airport:

Trip Planner

Search our weather history database for the weather conditions in past years. The results will help you decide how hot, cold, wet, or windy it might be!

Date:

Astronomy

Aug. 13, 2013 Rise Set
Actual Time 6:11 AM CDT 7:29 PM CDT
Civil Twilight 5:46 AM CDT 7:54 PM CDT
Nautical Twilight 5:16 AM CDT 8:25 PM CDT
Astronomical Twilight 4:44 AM CDT 8:56 PM CDT
Moon 12:33 PM CDT (8/13) 11:38 PM CDT (8/13)
Length of Visible Light 14h 08m
Length of Day
13h 17m
Waxing Crescent, 42% of the Moon is Illuminated
Aug 13
Waxing Crescent
Aug 14
First Quarter
Aug 20
Full
Aug 28
Last Quarter
Sep 5
New

Hourly Weather History & Observations

Time (CDT) Temp. Heat Index Dew Point Humidity Pressure Visibility Wind Dir Wind Speed Gust Speed Precip Events Conditions
12:55 AM 76.5 °F - 74.7 °F 94% 30.04 in 10.0 mi NNW 1.2 mph - N/A   Partly Cloudy
1:55 AM 75.9 °F - 74.5 °F 95% 30.04 in 10.0 mi NNW 1.2 mph - N/A   Scattered Clouds
2:55 AM 75.7 °F - 74.1 °F 95% 30.02 in 10.0 mi NNW 2.3 mph - N/A   Partly Cloudy
3:55 AM 75.9 °F - 73.8 °F 93% 30.01 in 10.0 mi NNE 2.3 mph - N/A   Partly Cloudy
4:55 AM 75.7 °F - 74.3 °F 95% 30.01 in 10.0 mi Calm Calm - N/A   Scattered Clouds
5:55 AM 76.1 °F - 74.3 °F 94% 30.01 in 10.0 mi Calm Calm - N/A   Scattered Clouds
6:55 AM 77.9 °F - 75.4 °F 92% 30.02 in 10.0 mi NW 2.3 mph - N/A   Mostly Cloudy
7:46 AM 82.4 °F 92.4 °F 78.8 °F 89% 30.03 in 10.0 mi NW 2.3 mph - N/A Thunderstorm Mostly Cloudy
7:55 AM 81.7 °F 90.2 °F 78.3 °F 89% 30.04 in 10.0 mi NW 2.3 mph - N/A Thunderstorm Mostly Cloudy
8:05 AM 82.4 °F 92.4 °F 78.8 °F 89% 30.03 in 10.0 mi NNW 2.3 mph - N/A Thunderstorm Thunderstorm
8:55 AM 84.0 °F 96.0 °F 79.0 °F 85% 30.04 in 9.0 mi NW 3.5 mph - N/A   Mostly Cloudy
9:55 AM 87.8 °F 98.6 °F 75.9 °F 68% 30.04 in 10.0 mi NNW 6.9 mph - N/A   Mostly Cloudy
10:55 AM 88.5 °F 98.8 °F 75.6 °F 65% 30.05 in 10.0 mi NW 6.9 mph - N/A   Mostly Cloudy
11:14 AM 87.8 °F 97.6 °F 75.2 °F 66% 30.04 in 10.0 mi Variable 3.5 mph - N/A Thunderstorm Thunderstorm
11:19 AM 87.8 °F 97.6 °F 75.2 °F 66% 30.04 in 10.0 mi Variable 4.6 mph - N/A Thunderstorm Thunderstorm
11:26 AM 87.8 °F 97.6 °F 75.2 °F 66% 30.04 in 7.0 mi Variable 4.6 mph - N/A Rain , Thunderstorm Light Thunderstorms and Rain
11:30 AM 86.0 °F 96.9 °F 77.0 °F 74% 30.04 in 5.0 mi WSW 8.1 mph - N/A Rain , Thunderstorm Light Thunderstorms and Rain
11:38 AM 80.6 °F 86.2 °F 75.2 °F 84% 30.05 in 7.0 mi SW 13.8 mph 26.5 mph N/A Rain , Thunderstorm Light Thunderstorms and Rain
11:42 AM 78.8 °F - 75.2 °F 89% 30.05 in 4.0 mi SW 15.0 mph 26.5 mph N/A Rain , Thunderstorm Light Thunderstorms and Rain
11:55 AM 76.3 °F - 74.1 °F 93% 30.06 in 5.0 mi Variable 4.6 mph 24.2 mph 0.11 in Rain , Thunderstorm Light Thunderstorms and Rain
12:21 PM 77.0 °F - 73.4 °F 89% 30.04 in 7.0 mi Variable 3.5 mph - N/A Thunderstorm Thunderstorm
12:31 PM 77.0 °F - 73.4 °F 89% 30.04 in 7.0 mi Calm Calm - N/A Rain , Thunderstorm Light Thunderstorms and Rain
12:41 PM 77.0 °F - 73.4 °F 89% 30.04 in 10.0 mi Variable 2.3 mph - N/A   Overcast
12:55 PM 77.0 °F - 74.5 °F 92% 30.04 in 10.0 mi SSW 3.5 mph - 0.00 in   Mostly Cloudy
1:55 PM 78.1 °F - 73.9 °F 87% 30.01 in 10.0 mi West 1.2 mph - N/A   Mostly Cloudy
2:55 PM 80.6 °F 86.0 °F 75.0 °F 83% 29.97 in 10.0 mi NW 2.3 mph - N/A   Mostly Cloudy
3:55 PM 81.5 °F 89.0 °F 76.8 °F 86% 29.98 in 10.0 mi SSW 3.5 mph - N/A   Mostly Cloudy
4:55 PM 82.4 °F 90.6 °F 76.8 °F 83% 29.97 in 10.0 mi SW 8.1 mph - N/A   Mostly Cloudy
5:10 PM 82.4 °F 90.9 °F 77.0 °F 84% 29.96 in 8.0 mi WSW 3.5 mph - N/A Thunderstorm Thunderstorm
5:34 PM 82.4 °F 90.9 °F 77.0 °F 84% 29.96 in 8.0 mi West 4.6 mph - N/A Rain Light Rain Showers
5:55 PM 80.4 °F 85.8 °F 75.2 °F 84% 29.98 in 10.0 mi West 5.8 mph - 0.00 in   Light Drizzle
6:04 PM 80.6 °F 86.2 °F 75.2 °F 84% 29.96 in 10.0 mi West 2.3 mph - N/A   Overcast
6:55 PM 79.0 °F - 75.4 °F 89% 29.98 in 10.0 mi NW 3.5 mph - N/A   Overcast
7:55 PM 78.3 °F - 75.7 °F 92% 29.99 in 10.0 mi NNW 2.3 mph - N/A   Overcast
8:55 PM 77.5 °F - 74.7 °F 91% 29.99 in 10.0 mi NNW 1.2 mph - N/A   Mostly Cloudy
9:55 PM 77.4 °F - 73.9 °F 89% 29.98 in 10.0 mi SSW 3.5 mph - N/A   Mostly Cloudy
10:55 PM 77.2 °F - 73.9 °F 90% 30.00 in 10.0 mi SW 1.2 mph - N/A   Mostly Cloudy
11:55 PM 77.0 °F - 73.6 °F 89% 30.00 in 10.0 mi WSW 1.2 mph - N/A   Mostly Cloudy